| time (UTC) | temp F | wind direction | speed MPH | gust MPH | rain 1hr in | rain 24hr in | rain mn in | humidity % | barometer mb |
| 20260507114609 | 53 | 13 | 11.0 | 15.0 | 0.00 | 0.00 | 0.00 | 62 | 1007.2 |
| 20260507113125 | 52 | 13 | 11.0 | 16.0 | 0.00 | 0.00 | 0.00 | 62 | 1007.0 |
| 20260507111557 | 53 | 11 | 14.0 | 21.0 | 0.00 | 0.00 | 0.00 | 60 | 1006.9 |
| 20260507110051 | 53 | 346 | 15.0 | 21.0 | 0.00 | 0.00 | 0.00 | 60 | 1006.6 |
| 20260507104545 | 53 | 11 | 19.0 | 24.0 | 0.00 | 0.00 | 0.00 | 59 | 1006.5 |
| 20260507103049 | 53 | 351 | 17.0 | 24.0 | 0.00 | 0.00 | 0.00 | 58 | 1006.4 |
| 20260507101542 | 53 | 13 | 17.0 | 22.0 | 0.00 | 0.00 | 0.00 | 58 | 1006.2 |
| 20260507100038 | 54 | 15 | 17.0 | 22.0 | 0.00 | 0.00 | 0.00 | 57 | 1006.0 |
| 20260507094549 | 54 | 20 | 19.0 | 24.0 | 0.00 | 0.00 | 0.00 | 57 | 1006.0 |
| 20260507093049 | 54 | 30 | 19.0 | 27.0 | 0.00 | 0.00 | 0.00 | 56 | 1005.7 |
| 20260507091547 | 54 | 23 | 20.0 | 27.0 | 0.00 | 0.00 | 0.00 | 56 | 1005.4 |
| 20260507090042 | 55 | 348 | 21.0 | 29.0 | 0.00 | 0.00 | 0.00 | 56 | 1005.0 |
| 20260507084544 | 55 | 351 | 24.0 | 31.0 | 0.00 | 0.00 | 0.00 | 55 | 1004.7 |
| 20260507083036 | 56 | 11 | 26.0 | 36.0 | 0.00 | 0.00 | 0.00 | 54 | 1005.0 |
| 20260507081539 | 57 | 344 | 20.0 | 23.0 | 0.00 | 0.00 | 0.00 | 53 | 1005.1 |
| 20260507080030 | 57 | 348 | 21.0 | 29.0 | 0.00 | 0.00 | 0.00 | 52 | 1004.8 |
| 20260507074531 | 58 | 24 | 20.0 | 26.0 | 0.00 | 0.00 | 0.00 | 50 | 1004.9 |
| 20260507073025 | 61 | 344 | 24.0 | 31.0 | 0.00 | 0.00 | 0.00 | 43 | 1004.7 |
| 20260507071519 | 69 | 36 | 6.0 | 9.0 | 0.00 | 0.00 | 0.00 | 26 | 1003.6 |
| 20260507070017 | 68 | 191 | 2.0 | 7.0 | 0.00 | 0.00 | 0.00 | 28 | 1003.4 |
| 20260507064514 | 71 | 294 | 5.0 | 6.0 | 0.00 | 0.00 | 0.00 | 23 | 1003.3 |
| 20260507063016 | 71 | 303 | 3.0 | 7.0 | 0.00 | 0.00 | 0.00 | 23 | 1003.2 |
| 20260507061513 | 70 | 291 | 4.0 | 7.0 | 0.00 | 0.00 | 0.00 | 25 | 1002.9 |
| 20260507060011 | 71 | 298 | 4.0 | 8.0 | 0.00 | 0.00 | 0.00 | 23 | 1002.8 |
| 20260507054510 | 72 | 257 | 7.0 | 9.0 | 0.00 | 0.00 | 0.00 | 23 | 1002.7 |
| 20260507053010 | 73 | 273 | 8.0 | 11.0 | 0.00 | 0.00 | 0.00 | 21 | 1002.7 |
| 20260507051510 | 72 | 255 | 5.0 | 7.0 | 0.00 | 0.00 | 0.00 | 21 | 1002.7 |
| 20260507050014 | 74 | 298 | 7.0 | 8.0 | 0.00 | 0.00 | 0.00 | 21 | 1002.7 |
| 20260507044512 | 74 | 310 | 6.0 | 8.0 | 0.00 | 0.00 | 0.00 | 21 | 1002.5 |
| 20260507043019 | 75 | 310 | 5.0 | 7.0 | 0.00 | 0.00 | 0.00 | 20 | 1002.3 |
| 20260507041510 | 75 | 323 | 6.0 | 9.0 | 0.00 | 0.00 | 0.00 | 19 | 1002.1 |
| 20260507040008 | 73 | 9 | 3.0 | 6.0 | 0.00 | 0.00 | 0.00 | 21 | 1002.1 |
| 20260507034532 | 73 | 15 | 1.0 | 4.0 | 0.00 | 0.00 | 0.00 | 22 | 1001.9 |
| 20260507033024 | 73 | 150 | 2.0 | 6.0 | 0.00 | 0.00 | 0.00 | 23 | 1001.7 |
| 20260507031524 | 73 | 300 | 9.0 | 12.0 | 0.00 | 0.00 | 0.00 | 21 | 1001.4 |
| 20260507030024 | 73 | 302 | 10.0 | 12.0 | 0.00 | 0.00 | 0.00 | 22 | 1001.2 |
| 20260507024519 | 74 | 305 | 10.0 | 12.0 | 0.00 | 0.00 | 0.00 | 21 | 1000.9 |
| 20260507023015 | 74 | 298 | 12.0 | 15.0 | 0.00 | 0.00 | 0.00 | 21 | 1000.7 |
| 20260507021515 | 76 | 305 | 12.0 | 14.0 | 0.00 | 0.00 | 0.00 | 19 | 1000.6 |
| 20260507020022 | 77 | 304 | 16.0 | 20.0 | 0.00 | 0.00 | 0.00 | 18 | 1000.3 |
| 20260507014510 | 77 | 298 | 14.0 | 17.0 | 0.00 | 0.00 | 0.00 | 18 | 1000.1 |
| 20260507013010 | 79 | 307 | 15.0 | 20.0 | 0.00 | 0.00 | 0.00 | 17 | 999.9 |
| 20260507011512 | 79 | 298 | 20.0 | 24.0 | 0.00 | 0.00 | 0.00 | 16 | 999.5 |
| 20260507010011 | 80 | 292 | 15.0 | 23.0 | 0.00 | 0.00 | 0.00 | 16 | 999.4 |
| 20260507004610 | 81 | 315 | 17.0 | 21.0 | 0.00 | 0.00 | 0.00 | 16 | 999.0 |
| 20260507003006 | 81 | 311 | 14.0 | 18.0 | 0.00 | 0.00 | 0.00 | 16 | 998.7 |
| 20260507001519 | 81 | 292 | 22.0 | 28.0 | 0.00 | 0.00 | 0.00 | 15 | 998.8 |
| 20260506234511 | 82 | 268 | 13.0 | 25.0 | 0.00 | 0.00 | 0.00 | 15 | 998.7 |
| 20260506233012 | 82 | 290 | 16.0 | 23.0 | 0.00 | 0.00 | 0.00 | 16 | 998.7 |
| 20260506231510 | 81 | 259 | 15.0 | 25.0 | 0.00 | 0.00 | 0.00 | 16 | 998.7 |
| 20260506230009 | 81 | 310 | 23.0 | 30.0 | 0.00 | 0.00 | 0.00 | 15 | 998.7 |
| 20260506224604 | 81 | 289 | 21.0 | 30.0 | 0.00 | 0.00 | 0.00 | 15 | 998.8 |
| 20260506224501 | 81 | 290 | 23.0 | 30.0 | 0.00 | 0.00 | 0.00 | 15 | 998.7 |
| 20260506223103 | 81 | 273 | 17.0 | 32.0 | 0.00 | 0.00 | 0.00 | 15 | 998.8 |
| 20260506221617 | 81 | 275 | 18.0 | 31.0 | 0.00 | 0.00 | 0.00 | 14 | 998.8 |
| 20260506220100 | 81 | 284 | 18.0 | 28.0 | 0.00 | 0.00 | 0.00 | 15 | 998.8 |
| 20260506214512 | 81 | 288 | 20.0 | 32.0 | 0.00 | 0.00 | 0.00 | 15 | 998.9 |
| 20260506213016 | 81 | 257 | 21.0 | 28.0 | 0.00 | 0.00 | 0.00 | 15 | 999.0 |
| 20260506211509 | 81 | 279 | 15.0 | 22.0 | 0.00 | 0.00 | 0.00 | 15 | 999.1 |
| 20260506210009 | 80 | 286 | 17.0 | 34.0 | 0.00 | 0.00 | 0.00 | 16 | 999.2 |
| 20260506204505 | 80 | 304 | 23.0 | 32.0 | 0.00 | 0.00 | 0.00 | 16 | 999.4 |
| 20260506203008 | 79 | 272 | 24.0 | 29.0 | 0.00 | 0.00 | 0.00 | 17 | 999.5 |
| 20260506201504 | 80 | 309 | 23.0 | 30.0 | 0.00 | 0.00 | 0.00 | 18 | 999.6 |
| 20260506200003 | 79 | 277 | 19.0 | 34.0 | 0.00 | 0.00 | 0.00 | 18 | 999.8 |
| 20260506194601 | 80 | 306 | 23.0 | 36.0 | 0.00 | 0.00 | 0.00 | 18 | 999.8 |
| 20260506193105 | 79 | 286 | 26.0 | 35.0 | 0.00 | 0.00 | 0.00 | 18 | 999.9 |
| 20260506191556 | 78 | 284 | 17.0 | 32.0 | 0.00 | 0.00 | 0.00 | 19 | 1000.3 |
| 20260506190056 | 77 | 296 | 15.0 | 35.0 | 0.00 | 0.00 | 0.00 | 20 | 1000.5 |
| 20260506184504 | 77 | 293 | 29.0 | 35.0 | 0.00 | 0.00 | 0.00 | 20 | 1000.9 |
| 20260506183109 | 77 | 305 | 17.0 | 33.0 | 0.00 | 0.00 | 0.00 | 23 | 1001.0 |
| 20260506181604 | 77 | 275 | 26.0 | 34.0 | 0.00 | 0.00 | 0.00 | 21 | 1000.9 |
| 20260506180059 | 75 | 279 | 11.0 | 16.0 | 0.00 | 0.00 | 0.00 | 24 | 1001.3 |
| 20260506174543 | 75 | 250 | 3.0 | 8.0 | 0.00 | 0.00 | 0.00 | 29 | 1001.7 |
| 20260506173045 | 74 | 182 | 8.0 | 12.0 | 0.00 | 0.00 | 0.00 | 29 | 1001.7 |
| 20260506171539 | 73 | 26 | 1.0 | 6.0 | 0.00 | 0.00 | 0.00 | 30 | 1001.9 |
| 20260506170044 | 72 | 185 | 1.0 | 13.0 | 0.00 | 0.00 | 0.00 | 30 | 1001.8 |
| 20260506164555 | 71 | 33 | 9.0 | 13.0 | 0.00 | 0.00 | 0.00 | 33 | 1001.8 |
| 20260506163042 | 70 | 346 | 10.0 | 15.0 | 0.00 | 0.00 | 0.00 | 33 | 1001.8 |
| 20260506161537 | 70 | 323 | 8.0 | 14.0 | 0.00 | 0.00 | 0.00 | 34 | 1001.7 |
| 20260506160037 | 70 | 42 | 5.0 | 11.0 | 0.00 | 0.00 | 0.00 | 34 | 1001.8 |
| 20260506154542 | 69 | 27 | 7.0 | 13.0 | 0.00 | 0.00 | 0.00 | 34 | 1001.8 |
| 20260506153035 | 69 | 341 | 11.0 | 14.0 | 0.00 | 0.00 | 0.00 | 33 | 1001.8 |
| 20260506151537 | 69 | 16 | 11.0 | 18.0 | 0.00 | 0.00 | 0.00 | 32 | 1001.6 |
| 20260506150033 | 70 | 18 | 11.0 | 16.0 | 0.00 | 0.00 | 0.00 | 29 | 1001.4 |
| 20260506144536 | 69 | 346 | 12.0 | 16.0 | 0.00 | 0.00 | 0.00 | 29 | 1001.3 |
| 20260506143039 | 69 | 336 | 5.0 | 10.0 | 0.00 | 0.00 | 0.00 | 30 | 1001.4 |
| 20260506141541 | 68 | 310 | 7.0 | 12.0 | 0.00 | 0.00 | 0.00 | 32 | 1001.4 |
| 20260506140036 | 67 | 269 | 9.0 | 12.0 | 0.00 | 0.00 | 0.00 | 31 | 1001.2 |
| 20260506134524 | 67 | 265 | 9.0 | 12.0 | 0.00 | 0.00 | 0.00 | 34 | 1001.2 |
| 20260506133021 | 67 | 266 | 11.0 | 14.0 | 0.00 | 0.00 | 0.00 | 30 | 1000.9 |
| 20260506131520 | 67 | 269 | 11.0 | 14.0 | 0.00 | 0.00 | 0.00 | 30 | 1000.8 |
| 20260506130018 | 68 | 287 | 8.0 | 10.0 | 0.00 | 0.00 | 0.00 | 28 | 1000.6 |
| 20260506124508 | 68 | 281 | 8.0 | 11.0 | 0.00 | 0.00 | 0.00 | 28 | 1000.5 |
| 20260506123007 | 68 | 268 | 9.0 | 12.0 | 0.00 | 0.00 | 0.00 | 29 | 1000.3 |
| 20260506121506 | 67 | 279 | 10.0 | 13.0 | 0.00 | 0.00 | 0.00 | 30 | 999.8 |
| 20260506120004 | 67 | 279 | 10.0 | 14.0 | 0.00 | 0.00 | 0.00 | 30 | 999.4 |